L65EX LICA-DAOR

Flight info

Callsign L65EX
Flight time 2h 41m
Altitude 39000
Route PEROS DCT LEBNU DCT SUSIP/N0452F400 UB979 SIRVI UM725 MAKEB UG864 GHA/N0454F410 UJ67 TAGIG
Aircraft CL60/M-SBDE1E2E3FGHIJ1J4J5J7M3RWXYZ/LB1V1D1

Departure

Time 2026-04-22 15:38
Airport Lamezia Terme Sant'Eufemia International Airport (LICA)

Arrival

Time 2026-04-22 18:20
Airport Béchar Boudghene Ben Ali Lotfi Airport (DAOR)
Time Latitude Longitude Altitude Speed Heading
2026-04-22 15:21 38.90794 16.25281 54 ft 0 kts 98°
2026-04-22 15:30 38.90794 16.25280 55 ft 1 kts 98°
2026-04-22 15:30 38.90797 16.25262 55 ft 1 kts 98°
2026-04-22 15:30 38.90801 16.25250 55 ft 1 kts 150°
2026-04-22 15:30 38.90810 16.25249 55 ft 1 kts 189°
2026-04-22 15:31 38.90812 16.25249 55 ft 0 kts 189°
2026-04-22 15:34 38.90804 16.25248 54 ft 2 kts 186°
2026-04-22 15:34 38.90770 16.25245 54 ft 7 kts 187°
2026-04-22 15:35 38.90713 16.25246 53 ft 8 kts 142°
2026-04-22 15:35 38.90663 16.25306 53 ft 11 kts 142°
2026-04-22 15:35 38.90620 16.25388 54 ft 10 kts 111°
2026-04-22 15:35 38.90585 16.25454 55 ft 5 kts 133°
2026-04-22 15:36 38.90552 16.25492 55 ft 4 kts 142°
2026-04-22 15:36 38.90534 16.25509 55 ft 0 kts 144°
2026-04-22 15:36 38.90530 16.25512 55 ft 2 kts 144°
2026-04-22 15:37 38.90511 16.25530 55 ft 4 kts 144°
2026-04-22 15:37 38.90474 16.25561 55 ft 7 kts 153°
2026-04-22 15:37 38.90416 16.25557 55 ft 7 kts 211°
2026-04-22 15:37 38.90391 16.25514 55 ft 5 kts 259°
2026-04-22 15:38 38.90392 16.25488 55 ft 10 kts 277°
2026-04-22 15:38 38.90612 16.23566 520 ft 162 kts 279°
2026-04-22 15:38 38.90780 16.22161 1582 ft 161 kts 280°
2026-04-22 15:39 38.90922 16.20756 2274 ft 165 kts 281°
2026-04-22 15:39 38.91085 16.19317 2869 ft 164 kts 281°
2026-04-22 15:39 38.91257 16.17868 3380 ft 166 kts 281°
2026-04-22 15:39 38.91431 16.16396 3778 ft 166 kts 281°
2026-04-22 15:40 38.91598 16.14947 4112 ft 171 kts 281°
2026-04-22 15:40 38.91758 16.13245 4344 ft 222 kts 271°
2026-04-22 15:40 38.91205 16.11273 4939 ft 254 kts 233°
2026-04-22 15:40 38.89841 16.09690 5758 ft 272 kts 222°
2026-04-22 15:41 38.88351 16.08153 6558 ft 275 kts 223°
2026-04-22 15:41 38.86866 16.06618 7422 ft 276 kts 223°
2026-04-22 15:41 38.85445 16.05138 8225 ft 279 kts 224°
2026-04-22 15:41 38.83953 16.03560 9077 ft 282 kts 225°
2026-04-22 15:42 38.82450 16.01964 9928 ft 285 kts 225°
2026-04-22 15:42 38.80900 16.00316 10789 ft 289 kts 226°
2026-04-22 15:42 38.79362 15.98680 11643 ft 292 kts 226°
2026-04-22 15:42 38.77799 15.97014 12501 ft 296 kts 226°
2026-04-22 15:43 38.76215 15.95326 13351 ft 299 kts 227°
2026-04-22 15:43 38.75024 15.94056 13977 ft 301 kts 227°
2026-04-22 15:43 38.73416 15.92343 14834 ft 304 kts 227°
2026-04-22 15:43 38.71807 15.90627 15685 ft 307 kts 227°
2026-04-22 15:44 38.70176 15.88886 16530 ft 310 kts 227°
2026-04-22 15:44 38.68507 15.87101 17402 ft 314 kts 227°
2026-04-22 15:44 38.66830 15.85304 18269 ft 318 kts 227°
2026-04-22 15:44 38.65133 15.83485 19113 ft 321 kts 228°
2026-04-22 15:45 38.63698 15.81433 19969 ft 311 kts 246°
2026-04-22 15:45 38.62844 15.78915 20855 ft 308 kts 256°
2026-04-22 15:45 38.62122 15.76367 21684 ft 312 kts 255°
2026-04-22 15:45 38.61372 15.73755 22452 ft 316 kts 255°
2026-04-22 15:46 38.60606 15.71086 23204 ft 321 kts 255°
2026-04-22 15:46 38.59832 15.68397 24005 ft 324 kts 255°
2026-04-22 15:46 38.59062 15.65721 24738 ft 329 kts 255°
2026-04-22 15:46 38.58259 15.62933 25425 ft 334 kts 255°
2026-04-22 15:47 38.57460 15.60162 26124 ft 338 kts 255°
2026-04-22 15:47 38.56644 15.57338 26829 ft 341 kts 255°
2026-04-22 15:47 38.55822 15.54493 27425 ft 346 kts 255°
2026-04-22 15:47 38.54979 15.51580 28052 ft 349 kts 255°
2026-04-22 15:48 38.54131 15.48652 28611 ft 354 kts 255°
2026-04-22 15:48 38.53261 15.45652 29214 ft 357 kts 255°
2026-04-22 15:48 38.52385 15.42634 29756 ft 361 kts 255°
2026-04-22 15:48 38.51505 15.39609 30285 ft 364 kts 255°
2026-04-22 15:49 38.50615 15.36549 30771 ft 368 kts 255°
2026-04-22 15:49 38.49726 15.33498 31279 ft 370 kts 254°
2026-04-22 15:49 38.49124 15.31435 31576 ft 373 kts 254°
2026-04-22 15:50 38.47145 15.24660 32576 ft 378 kts 253°
2026-04-22 15:50 38.46211 15.21465 32983 ft 381 kts 253°
2026-04-22 15:50 38.45267 15.18247 33412 ft 383 kts 253°
2026-04-22 15:50 38.44331 15.15057 33823 ft 384 kts 253°
2026-04-22 15:51 38.43392 15.11860 34313 ft 383 kts 253°
2026-04-22 15:51 38.42459 15.08689 34786 ft 382 kts 253°
2026-04-22 15:51 38.41537 15.05562 35217 ft 380 kts 253°
2026-04-22 15:51 38.40607 15.02407 35633 ft 379 kts 253°
2026-04-22 15:52 38.39679 14.99265 36022 ft 377 kts 253°
2026-04-22 15:52 38.38757 14.96143 36402 ft 375 kts 253°
2026-04-22 15:52 38.37837 14.93033 36780 ft 374 kts 253°
2026-04-22 15:52 38.36922 14.89945 37221 ft 372 kts 253°
2026-04-22 15:53 38.36007 14.86860 37627 ft 371 kts 253°
2026-04-22 15:53 38.35099 14.83799 38008 ft 370 kts 253°
2026-04-22 15:53 38.34188 14.80732 38340 ft 370 kts 253°
2026-04-22 15:53 38.33280 14.77680 38655 ft 369 kts 253°
2026-04-22 15:54 38.32377 14.74646 38941 ft 369 kts 253°
2026-04-22 15:54 38.31469 14.71594 38963 ft 374 kts 253°
2026-04-22 15:54 38.29590 14.65290 38982 ft 385 kts 253°
2026-04-22 15:55 38.27667 14.58857 38980 ft 394 kts 253°
2026-04-22 15:55 38.25689 14.52262 38978 ft 403 kts 253°
2026-04-22 15:56 38.23667 14.45535 38976 ft 410 kts 253°
2026-04-22 15:56 38.21597 14.38667 38979 ft 415 kts 253°
2026-04-22 15:57 38.19519 14.31792 38974 ft 417 kts 252°
2026-04-22 15:57 38.17436 14.24918 38975 ft 418 kts 252°
2026-04-22 15:58 38.15343 14.18030 38972 ft 416 kts 252°
2026-04-22 15:58 38.13267 14.11213 38984 ft 416 kts 253°
2026-04-22 15:59 38.11172 14.04350 38975 ft 416 kts 253°
2026-04-22 15:59 38.09075 13.97494 38975 ft 417 kts 253°
2026-04-22 16:00 38.06961 13.90603 38984 ft 417 kts 253°
2026-04-22 16:00 38.04857 13.83757 38992 ft 420 kts 253°
2026-04-22 16:01 38.03801 13.80329 38855 ft 416 kts 253°
2026-04-22 16:01 38.02747 13.76914 38983 ft 416 kts 253°
2026-04-22 16:01 38.01379 13.69852 38964 ft 409 kts 264°
2026-04-22 16:02 38.00523 13.62717 38962 ft 409 kts 264°
2026-04-22 16:02 37.99656 13.55568 38966 ft 410 kts 264°
2026-04-22 16:03 37.98787 13.48436 38977 ft 409 kts 265°
2026-04-22 16:03 37.97921 13.41359 38992 ft 409 kts 265°
2026-04-22 16:04 37.97039 13.34200 39010 ft 409 kts 264°
2026-04-22 16:04 37.96164 13.27120 39030 ft 409 kts 264°
2026-04-22 16:05 37.95282 13.20022 39019 ft 409 kts 264°
2026-04-22 16:05 37.94392 13.12901 38996 ft 409 kts 264°
2026-04-22 16:06 37.93493 13.05740 38986 ft 408 kts 264°
2026-04-22 16:06 37.92594 12.98614 38967 ft 408 kts 264°
2026-04-22 16:07 37.91700 12.91570 38975 ft 407 kts 264°
2026-04-22 16:07 37.90801 12.84508 38977 ft 407 kts 264°
2026-04-22 16:08 37.89896 12.77442 38981 ft 407 kts 264°
2026-04-22 16:08 37.88987 12.70374 38975 ft 408 kts 264°
2026-04-22 16:09 37.88066 12.63254 38974 ft 408 kts 264°
2026-04-22 16:09 37.87151 12.56212 38969 ft 407 kts 264°
2026-04-22 16:10 37.86227 12.49137 38964 ft 407 kts 264°
2026-04-22 16:10 37.85305 12.42110 38966 ft 407 kts 264°
2026-04-22 16:11 37.84374 12.35047 38965 ft 407 kts 264°
2026-04-22 16:11 37.83436 12.27961 38965 ft 407 kts 263°
2026-04-22 16:12 37.82494 12.20889 38964 ft 407 kts 263°
2026-04-22 16:12 37.81551 12.13835 38961 ft 407 kts 263°
2026-04-22 16:13 37.80611 12.06834 38965 ft 406 kts 263°
2026-04-22 16:13 37.79654 11.99747 38966 ft 406 kts 263°
2026-04-22 16:14 37.78699 11.92707 38961 ft 406 kts 263°
2026-04-22 16:14 37.77746 11.85704 38967 ft 406 kts 263°
2026-04-22 16:15 37.76780 11.78649 38964 ft 406 kts 263°
2026-04-22 16:15 37.75812 11.71609 38956 ft 407 kts 263°
2026-04-22 16:16 37.74842 11.64582 38953 ft 407 kts 263°
2026-04-22 16:16 37.73866 11.57550 38953 ft 407 kts 263°
2026-04-22 16:17 37.72887 11.50528 38953 ft 407 kts 263°
2026-04-22 16:17 37.71898 11.43464 38957 ft 407 kts 263°
2026-04-22 16:18 37.70916 11.36477 38956 ft 407 kts 263°
2026-04-22 16:18 37.69918 11.29413 38961 ft 407 kts 262°
2026-04-22 16:19 37.68924 11.22408 38968 ft 407 kts 262°
2026-04-22 16:19 37.67437 11.15494 39134 ft 412 kts 251°
2026-04-22 16:20 37.66185 11.12245 39302 ft 415 kts 244°
2026-04-22 16:20 37.64603 11.09208 39456 ft 419 kts 237°
2026-04-22 16:20 37.62687 11.06415 39600 ft 423 kts 230°
2026-04-22 16:20 37.60498 11.03903 39733 ft 426 kts 226°
2026-04-22 16:21 37.58247 11.01464 39905 ft 425 kts 226°
2026-04-22 16:21 37.56009 10.99037 39966 ft 426 kts 226°
2026-04-22 16:21 37.51484 10.94130 39958 ft 428 kts 226°
2026-04-22 16:22 37.44754 10.86849 39958 ft 425 kts 226°
2026-04-22 16:23 37.38056 10.79622 39958 ft 424 kts 226°
2026-04-22 16:23 37.33553 10.74770 39951 ft 424 kts 226°
2026-04-22 16:24 37.26837 10.67552 39952 ft 423 kts 226°
2026-04-22 16:25 37.22349 10.62737 39949 ft 423 kts 226°
2026-04-22 16:25 37.15661 10.55577 39952 ft 421 kts 226°
2026-04-22 16:26 37.11215 10.50826 39948 ft 421 kts 226°
2026-04-22 16:26 37.06760 10.46073 39945 ft 421 kts 226°
2026-04-22 16:27 37.02296 10.41318 39948 ft 421 kts 226°
2026-04-22 16:27 36.97803 10.36539 39951 ft 420 kts 226°
2026-04-22 16:28 36.93366 10.31829 39954 ft 421 kts 225°
2026-04-22 16:28 36.88878 10.27070 39956 ft 421 kts 225°
2026-04-22 16:29 36.84539 10.22192 39958 ft 416 kts 233°
2026-04-22 16:29 36.80864 10.16581 39950 ft 415 kts 235°
2026-04-22 16:30 36.77214 10.10972 39954 ft 416 kts 235°
2026-04-22 16:30 36.73553 10.05359 39949 ft 416 kts 235°
2026-04-22 16:31 36.69884 9.99746 39952 ft 416 kts 235°
2026-04-22 16:31 36.66219 9.94149 39951 ft 416 kts 234°
2026-04-22 16:32 36.62556 9.88565 39950 ft 417 kts 235°
2026-04-22 16:32 36.58897 9.82998 39956 ft 417 kts 234°
2026-04-22 16:33 36.55199 9.77379 39952 ft 419 kts 234°
2026-04-22 16:33 36.51507 9.71782 39958 ft 419 kts 234°
2026-04-22 16:34 36.47786 9.66149 39963 ft 419 kts 234°
2026-04-22 16:34 36.44103 9.60584 39964 ft 419 kts 234°
2026-04-22 16:35 36.40400 9.54999 39969 ft 419 kts 234°
2026-04-22 16:35 36.36679 9.49393 39978 ft 419 kts 234°
2026-04-22 16:36 36.32971 9.43818 39981 ft 420 kts 234°
2026-04-22 16:36 36.29231 9.38205 39989 ft 421 kts 234°
2026-04-22 16:37 36.25509 9.32627 39986 ft 422 kts 234°
2026-04-22 16:37 36.21772 9.27036 39996 ft 422 kts 233°
2026-04-22 16:38 36.18002 9.21407 40005 ft 423 kts 233°
2026-04-22 16:38 36.14245 9.15804 40007 ft 423 kts 233°
2026-04-22 16:39 36.10483 9.10205 40018 ft 423 kts 233°
2026-04-22 16:39 36.06692 9.04571 40017 ft 423 kts 233°
2026-04-22 16:40 36.02974 8.98936 40015 ft 423 kts 236°
2026-04-22 16:41 35.97612 8.90209 40021 ft 424 kts 236°
2026-04-22 16:41 35.94063 8.84448 40020 ft 424 kts 236°
2026-04-22 16:42 35.90487 8.78655 40028 ft 424 kts 236°
2026-04-22 16:42 35.86905 8.72862 40032 ft 424 kts 236°
2026-04-22 16:43 35.83330 8.67090 40020 ft 424 kts 236°
2026-04-22 16:43 35.79758 8.61333 40031 ft 424 kts 236°
2026-04-22 16:44 35.76178 8.55573 40037 ft 424 kts 236°
2026-04-22 16:44 35.72572 8.49780 40047 ft 425 kts 235°
2026-04-22 16:45 35.68991 8.44040 40038 ft 425 kts 236°
2026-04-22 16:45 35.65372 8.38246 40055 ft 425 kts 236°
2026-04-22 16:46 35.61761 8.32476 40065 ft 426 kts 235°
2026-04-22 16:46 35.58130 8.26683 40070 ft 427 kts 235°
2026-04-22 16:47 35.54507 8.20913 40086 ft 427 kts 235°
2026-04-22 16:47 35.50868 8.15128 40083 ft 427 kts 235°
2026-04-22 16:48 35.47238 8.09366 40080 ft 427 kts 234°
2026-04-22 16:48 35.43472 8.03688 40093 ft 427 kts 232°
2026-04-22 16:49 35.39607 7.98140 40079 ft 428 kts 232°
2026-04-22 16:49 35.35712 7.92551 40092 ft 428 kts 232°
2026-04-22 16:50 35.31837 7.87001 40100 ft 430 kts 232°
2026-04-22 16:50 35.27945 7.81435 40105 ft 430 kts 232°
2026-04-22 16:51 35.24063 7.75889 40102 ft 430 kts 232°
2026-04-22 16:51 35.20150 7.70310 40104 ft 432 kts 232°
2026-04-22 16:52 35.16252 7.64759 40101 ft 433 kts 232°
2026-04-22 16:52 35.12317 7.59165 40104 ft 434 kts 232°
2026-04-22 16:53 35.08351 7.53536 40107 ft 436 kts 232°
2026-04-22 16:53 35.04398 7.47934 40106 ft 438 kts 232°
2026-04-22 16:54 35.00464 7.42370 40099 ft 439 kts 232°
2026-04-22 16:54 34.96461 7.36716 40096 ft 440 kts 232°
2026-04-22 16:55 34.92452 7.31062 40078 ft 441 kts 232°
2026-04-22 16:55 34.88437 7.25409 40078 ft 441 kts 232°
2026-04-22 16:56 34.84414 7.19754 40044 ft 441 kts 232°
2026-04-22 16:56 34.80395 7.14114 40021 ft 441 kts 232°
2026-04-22 16:57 34.76394 7.08406 40017 ft 442 kts 232°
2026-04-22 16:57 34.72401 7.02696 39979 ft 443 kts 232°
2026-04-22 16:58 34.68400 6.96985 39968 ft 443 kts 232°
2026-04-22 16:58 34.64381 6.91259 39969 ft 443 kts 232°
2026-04-22 16:59 34.60395 6.85589 39936 ft 443 kts 232°
2026-04-22 16:59 34.56362 6.79862 39925 ft 442 kts 232°
2026-04-22 17:00 34.52393 6.74235 39890 ft 441 kts 232°
2026-04-22 17:00 34.46416 6.65778 39878 ft 439 kts 232°
2026-04-22 17:01 34.42432 6.60154 39881 ft 438 kts 232°
2026-04-22 17:01 34.38433 6.54515 39880 ft 438 kts 232°
2026-04-22 17:02 34.34437 6.48892 39866 ft 438 kts 232°
2026-04-22 17:02 34.30458 6.43300 39858 ft 437 kts 232°
2026-04-22 17:03 34.26515 6.37768 39858 ft 436 kts 232°
2026-04-22 17:03 34.22533 6.32189 39855 ft 435 kts 231°
2026-04-22 17:04 34.18574 6.26653 39846 ft 434 kts 231°
2026-04-22 17:04 34.14611 6.21119 39849 ft 433 kts 231°
2026-04-22 17:05 34.10655 6.15603 39855 ft 433 kts 231°
2026-04-22 17:05 34.06710 6.10111 39831 ft 432 kts 231°
2026-04-22 17:06 34.02751 6.04608 39816 ft 432 kts 231°
2026-04-22 17:06 33.98814 5.99144 39822 ft 431 kts 231°
2026-04-22 17:07 33.94892 5.93710 39841 ft 430 kts 231°
2026-04-22 17:07 33.90961 5.88202 39843 ft 430 kts 232°
2026-04-22 17:08 33.87057 5.82696 39847 ft 430 kts 232°
2026-04-22 17:08 33.83167 5.77219 39860 ft 431 kts 232°
2026-04-22 17:09 33.79254 5.71718 39855 ft 431 kts 232°
2026-04-22 17:09 33.75364 5.66259 39877 ft 432 kts 232°
2026-04-22 17:10 33.71431 5.60748 39889 ft 432 kts 232°
2026-04-22 17:10 33.67525 5.55283 39911 ft 431 kts 232°
2026-04-22 17:11 33.63609 5.49811 39899 ft 433 kts 232°
2026-04-22 17:11 33.59680 5.44331 39905 ft 434 kts 232°
2026-04-22 17:12 33.55734 5.38836 39908 ft 435 kts 232°
2026-04-22 17:12 33.51775 5.33330 39900 ft 435 kts 231°
2026-04-22 17:13 33.47808 5.27822 39898 ft 435 kts 231°
2026-04-22 17:13 33.43850 5.22336 39901 ft 435 kts 231°
2026-04-22 17:14 33.39919 5.16894 39909 ft 435 kts 231°
2026-04-22 17:14 33.35944 5.11400 39914 ft 435 kts 231°
2026-04-22 17:15 33.31958 5.05900 39921 ft 436 kts 231°
2026-04-22 17:15 33.27956 5.00386 39922 ft 437 kts 231°
2026-04-22 17:16 33.24026 4.94878 39921 ft 436 kts 232°
2026-04-22 17:16 33.20072 4.89328 39937 ft 437 kts 232°
2026-04-22 17:17 33.16120 4.83788 39933 ft 438 kts 232°
2026-04-22 17:17 33.12168 4.78258 39938 ft 438 kts 232°
2026-04-22 17:18 33.08197 4.72710 39941 ft 439 kts 232°
2026-04-22 17:18 33.04205 4.67141 39940 ft 440 kts 232°
2026-04-22 17:19 32.96263 4.56088 39961 ft 440 kts 232°
2026-04-22 17:20 32.88277 4.45008 39950 ft 442 kts 233°
2026-04-22 17:21 32.82256 4.36676 39955 ft 443 kts 233°
2026-04-22 17:22 32.76211 4.28330 39966 ft 445 kts 232°
2026-04-22 17:23 32.70143 4.19972 39964 ft 445 kts 232°
2026-04-22 17:23 32.64051 4.11599 39964 ft 446 kts 232°
2026-04-22 17:24 32.59981 4.06017 39979 ft 446 kts 232°
2026-04-22 17:24 32.55893 4.00418 39975 ft 448 kts 232°
2026-04-22 17:25 32.51809 3.94832 39976 ft 448 kts 232°
2026-04-22 17:25 32.47747 3.89287 39982 ft 448 kts 232°
2026-04-22 17:26 32.43651 3.83701 39994 ft 448 kts 233°
2026-04-22 17:26 32.39938 3.77842 39997 ft 443 kts 244°
2026-04-22 17:27 32.37582 3.71173 39998 ft 438 kts 256°
2026-04-22 17:27 32.35767 3.64278 40004 ft 438 kts 256°
2026-04-22 17:28 32.33952 3.57418 40015 ft 438 kts 256°
2026-04-22 17:28 32.32127 3.50532 40015 ft 437 kts 256°
2026-04-22 17:29 32.30311 3.43695 40021 ft 437 kts 256°
2026-04-22 17:29 32.28483 3.36827 40030 ft 438 kts 256°
2026-04-22 17:30 32.26647 3.29944 40029 ft 438 kts 256°
2026-04-22 17:30 32.24813 3.23088 40029 ft 439 kts 256°
2026-04-22 17:31 32.22968 3.16204 40025 ft 439 kts 256°
2026-04-22 17:31 32.21124 3.09342 40021 ft 438 kts 256°
2026-04-22 17:32 32.19276 3.02482 40020 ft 438 kts 256°
2026-04-22 17:32 32.17431 2.95646 40016 ft 438 kts 256°
2026-04-22 17:33 32.15571 2.88773 40024 ft 439 kts 256°
2026-04-22 17:33 32.13707 2.81900 40022 ft 439 kts 256°
2026-04-22 17:34 32.11840 2.75036 40026 ft 439 kts 256°
2026-04-22 17:34 32.09972 2.68182 40030 ft 438 kts 256°
2026-04-22 17:35 32.08110 2.61364 40027 ft 438 kts 256°
2026-04-22 17:35 32.06228 2.54492 40023 ft 438 kts 256°
2026-04-22 17:36 32.04360 2.47687 40021 ft 437 kts 256°
2026-04-22 17:36 32.02479 2.40850 40016 ft 437 kts 256°
2026-04-22 17:37 32.00590 2.34001 40014 ft 437 kts 256°
2026-04-22 17:37 31.98706 2.27185 40009 ft 437 kts 256°
2026-04-22 17:38 31.96828 2.20408 40010 ft 436 kts 256°
2026-04-22 17:38 31.94943 2.13623 40013 ft 435 kts 256°
2026-04-22 17:39 31.93054 2.06836 40020 ft 435 kts 256°
2026-04-22 17:40 31.90223 1.96694 40011 ft 435 kts 256°
2026-04-22 17:40 31.88323 1.89908 40015 ft 435 kts 256°
2026-04-22 17:41 31.86428 1.83156 40014 ft 435 kts 256°
2026-04-22 17:41 31.84530 1.76403 40012 ft 434 kts 256°
2026-04-22 17:42 31.82637 1.69690 40015 ft 433 kts 256°
2026-04-22 17:42 31.80740 1.62976 40022 ft 432 kts 256°
2026-04-22 17:43 31.78836 1.56253 40032 ft 431 kts 256°
2026-04-22 17:43 31.76949 1.49549 40032 ft 431 kts 257°
2026-04-22 17:44 31.75223 1.42830 40038 ft 431 kts 258°
2026-04-22 17:44 31.73487 1.36068 40038 ft 432 kts 258°
2026-04-22 17:45 31.71747 1.29307 40036 ft 432 kts 257°
2026-04-22 17:45 31.70011 1.22579 40034 ft 431 kts 257°
2026-04-22 17:46 31.68262 1.15818 40039 ft 430 kts 257°
2026-04-22 17:46 31.66517 1.09090 40040 ft 429 kts 257°
2026-04-22 17:47 31.64787 1.02433 40044 ft 428 kts 258°
2026-04-22 17:47 31.63040 0.95725 40042 ft 428 kts 258°
2026-04-22 17:48 31.61293 0.89034 40044 ft 428 kts 258°
2026-04-22 17:48 31.59536 0.82325 40048 ft 428 kts 258°
2026-04-22 17:49 31.57787 0.75657 40048 ft 427 kts 258°
2026-04-22 17:49 31.56038 0.69007 40048 ft 427 kts 258°
2026-04-22 17:50 31.54292 0.62383 40039 ft 426 kts 258°
2026-04-22 17:50 31.52537 0.55744 40036 ft 425 kts 258°
2026-04-22 17:51 31.50785 0.49129 40036 ft 424 kts 258°
2026-04-22 17:51 31.49019 0.42478 40038 ft 424 kts 258°
2026-04-22 17:52 31.47267 0.35894 40038 ft 424 kts 258°
2026-04-22 17:52 31.45509 0.29297 40031 ft 424 kts 257°
2026-04-22 17:53 31.43755 0.22739 40043 ft 423 kts 258°
2026-04-22 17:53 31.41991 0.16153 40042 ft 423 kts 257°
2026-04-22 17:54 31.40222 0.09567 40033 ft 422 kts 258°
2026-04-22 17:54 31.38461 0.03026 40038 ft 421 kts 258°
2026-04-22 17:55 31.36693 -0.03529 40039 ft 421 kts 258°
2026-04-22 17:55 31.34926 -0.10064 40046 ft 420 kts 257°
2026-04-22 17:56 31.33165 -0.16562 40037 ft 420 kts 257°
2026-04-22 17:56 31.31395 -0.23080 40046 ft 419 kts 258°
2026-04-22 17:57 31.29630 -0.29565 40038 ft 419 kts 258°
2026-04-22 17:57 31.27861 -0.36050 40041 ft 419 kts 258°
2026-04-22 17:57 31.26971 -0.39307 39886 ft 417 kts 258°
2026-04-22 17:58 31.26097 -0.42496 39340 ft 411 kts 257°
2026-04-22 17:58 31.25231 -0.45654 38806 ft 406 kts 258°
2026-04-22 17:58 31.24364 -0.48812 38282 ft 401 kts 258°
2026-04-22 17:58 31.23525 -0.51867 37799 ft 397 kts 258°
2026-04-22 17:59 31.22679 -0.54941 37299 ft 392 kts 258°
2026-04-22 17:59 31.21854 -0.57942 36809 ft 388 kts 258°
2026-04-22 17:59 31.21033 -0.60925 36300 ft 385 kts 258°
2026-04-22 17:59 31.20209 -0.63915 35805 ft 382 kts 258°
2026-04-22 18:00 31.19403 -0.66838 35299 ft 381 kts 257°
2026-04-22 18:00 31.18584 -0.69811 34794 ft 386 kts 258°
2026-04-22 18:00 31.17761 -0.72797 34285 ft 390 kts 257°
2026-04-22 18:00 31.16917 -0.75854 33757 ft 394 kts 257°
2026-04-22 18:01 31.16117 -0.78748 33263 ft 397 kts 257°
2026-04-22 18:01 31.15270 -0.81802 32738 ft 396 kts 257°
2026-04-22 18:01 31.14429 -0.84830 32224 ft 394 kts 257°
2026-04-22 18:01 31.13581 -0.87882 31701 ft 390 kts 257°
2026-04-22 18:02 31.12754 -0.90852 31198 ft 387 kts 257°
2026-04-22 18:02 31.11928 -0.93816 30683 ft 384 kts 257°
2026-04-22 18:02 31.11098 -0.96795 30173 ft 381 kts 257°
2026-04-22 18:02 31.10281 -0.99722 29671 ft 379 kts 257°
2026-04-22 18:03 31.09470 -1.02628 29171 ft 377 kts 257°
2026-04-22 18:03 31.08654 -1.05546 28671 ft 374 kts 256°
2026-04-22 18:03 31.07853 -1.08407 28176 ft 372 kts 256°
2026-04-22 18:03 31.07054 -1.11262 27684 ft 369 kts 256°
2026-04-22 18:04 31.06265 -1.14078 27200 ft 368 kts 256°
2026-04-22 18:04 31.05465 -1.16932 26711 ft 366 kts 256°
2026-04-22 18:04 31.04679 -1.19730 26229 ft 364 kts 256°
2026-04-22 18:04 31.03898 -1.22508 25752 ft 362 kts 255°
2026-04-22 18:05 31.03121 -1.25271 25278 ft 360 kts 256°
2026-04-22 18:05 31.02341 -1.28041 24800 ft 358 kts 255°
2026-04-22 18:05 31.01562 -1.30812 24307 ft 356 kts 256°
2026-04-22 18:05 31.01128 -1.33609 23823 ft 350 kts 272°
2026-04-22 18:06 31.01448 -1.36346 23317 ft 343 kts 290°
2026-04-22 18:06 31.02478 -1.38832 22791 ft 337 kts 307°
2026-04-22 18:06 31.04019 -1.40840 22274 ft 332 kts 317°
2026-04-22 18:06 31.05697 -1.42717 21874 ft 331 kts 317°
2026-04-22 18:07 31.07341 -1.44572 21434 ft 330 kts 317°
2026-04-22 18:07 31.08989 -1.46433 20993 ft 328 kts 316°
2026-04-22 18:07 31.10631 -1.48287 20558 ft 326 kts 317°
2026-04-22 18:07 31.12256 -1.50125 20125 ft 324 kts 317°
2026-04-22 18:08 31.13873 -1.51954 19689 ft 322 kts 316°
2026-04-22 18:08 31.15474 -1.53766 19267 ft 320 kts 316°
2026-04-22 18:08 31.17058 -1.55558 18849 ft 318 kts 316°
2026-04-22 18:08 31.18650 -1.57362 18421 ft 316 kts 316°
2026-04-22 18:09 31.20204 -1.59122 18011 ft 313 kts 316°
2026-04-22 18:09 31.21779 -1.60909 17568 ft 312 kts 316°
2026-04-22 18:09 31.23329 -1.62668 17167 ft 309 kts 316°
2026-04-22 18:09 31.24863 -1.64408 16757 ft 308 kts 316°
2026-04-22 18:10 31.26402 -1.66156 16341 ft 306 kts 315°
2026-04-22 18:10 31.27926 -1.67889 15938 ft 304 kts 315°
2026-04-22 18:10 31.29441 -1.69610 15532 ft 304 kts 315°
2026-04-22 18:10 31.30957 -1.71335 15129 ft 302 kts 314°
2026-04-22 18:11 31.32447 -1.73030 14731 ft 301 kts 314°
2026-04-22 18:11 31.33951 -1.74743 14328 ft 300 kts 314°
2026-04-22 18:11 31.35438 -1.76436 13927 ft 299 kts 314°
2026-04-22 18:11 31.36924 -1.78129 13540 ft 298 kts 314°
2026-04-22 18:12 31.38412 -1.79825 13139 ft 298 kts 313°
2026-04-22 18:12 31.39894 -1.81516 12743 ft 296 kts 313°
2026-04-22 18:12 31.41362 -1.83191 12352 ft 295 kts 313°
2026-04-22 18:12 31.42834 -1.84872 11957 ft 294 kts 314°
2026-04-22 18:13 31.44296 -1.86542 11576 ft 293 kts 314°
2026-04-22 18:13 31.45744 -1.88197 11189 ft 293 kts 313°
2026-04-22 18:13 31.47206 -1.89868 10801 ft 292 kts 314°
2026-04-22 18:13 31.48654 -1.91525 10417 ft 291 kts 314°
2026-04-22 18:14 31.50101 -1.93181 10030 ft 290 kts 314°
2026-04-22 18:14 31.51538 -1.94826 9651 ft 289 kts 314°
2026-04-22 18:14 31.52977 -1.96474 9274 ft 289 kts 314°
2026-04-22 18:14 31.54425 -1.98133 8887 ft 288 kts 314°
2026-04-22 18:15 31.55846 -1.99763 8516 ft 287 kts 314°
2026-04-22 18:15 31.57273 -2.01400 8140 ft 287 kts 314°
2026-04-22 18:15 31.58693 -2.03030 7756 ft 286 kts 314°
2026-04-22 18:15 31.60129 -2.04678 7375 ft 285 kts 314°
2026-04-22 18:16 31.61526 -2.06283 6999 ft 281 kts 314°
2026-04-22 18:16 31.62907 -2.07870 6632 ft 277 kts 314°
2026-04-22 18:16 31.64274 -2.09440 6270 ft 272 kts 314°
2026-04-22 18:16 31.65623 -2.10992 5913 ft 267 kts 314°
2026-04-22 18:17 31.66935 -2.12501 5555 ft 262 kts 314°
2026-04-22 18:17 31.68205 -2.13969 5225 ft 256 kts 313°
2026-04-22 18:17 31.69184 -2.15675 4857 ft 249 kts 288°
2026-04-22 18:17 31.69345 -2.17654 4476 ft 241 kts 259°
2026-04-22 18:18 31.68778 -2.19420 4148 ft 221 kts 240°
2026-04-22 18:18 31.68063 -2.20861 4064 ft 189 kts 239°
2026-04-22 18:18 31.67433 -2.22128 3702 ft 173 kts 239°
2026-04-22 18:18 31.66871 -2.23291 3412 ft 149 kts 239°
2026-04-22 18:19 31.66377 -2.24298 3124 ft 135 kts 239°
2026-04-22 18:19 31.65914 -2.25228 2924 ft 130 kts 238°
2026-04-22 18:19 31.65466 -2.26143 2763 ft 129 kts 238°
2026-04-22 18:19 31.65027 -2.27035 2673 ft 115 kts 237°
2026-04-22 18:20 31.64689 -2.27702 2667 ft 69 kts 240°
2026-04-22 18:20 31.64461 -2.28172 2667 ft 55 kts 242°
2026-04-22 18:20 31.64343 -2.28413 2666 ft 25 kts 237°
2026-04-22 18:20 31.64278 -2.28492 2666 ft 11 kts 199°
2026-04-22 18:21 31.64217 -2.28477 2666 ft 9 kts 147°
2026-04-22 18:21 31.64150 -2.28430 2666 ft 12 kts 152°
2026-04-22 18:21 31.64062 -2.28375 2666 ft 13 kts 152°
2026-04-22 18:21 31.64016 -2.28304 2665 ft 11 kts 66°
2026-04-22 18:22 31.64065 -2.28207 2665 ft 16 kts 60°
2026-04-22 18:22 31.64128 -2.28080 2665 ft 19 kts 60°
2026-04-22 18:22 31.64202 -2.27932 2665 ft 22 kts 59°
2026-04-22 18:22 31.64282 -2.27770 2665 ft 20 kts 60°
2026-04-22 18:23 31.64342 -2.27647 2665 ft 15 kts 59°
2026-04-22 18:23 31.64403 -2.27526 2665 ft 18 kts 60°
2026-04-22 18:23 31.64474 -2.27381 2666 ft 22 kts 60°
2026-04-22 18:24 31.64637 -2.27054 2667 ft 20 kts 60°
2026-04-22 18:24 31.64713 -2.26902 2667 ft 22 kts 60°
2026-04-22 18:24 31.64884 -2.26555 2666 ft 23 kts 60°
2026-04-22 18:25 31.64961 -2.26402 2664 ft 19 kts 59°
2026-04-22 18:25 31.64998 -2.26291 2662 ft 13 kts 90°
2026-04-22 18:25 31.64996 -2.26158 2661 ft 18 kts 92°
2026-04-22 18:26 31.64998 -2.25799 2656 ft 25 kts 90°
2026-04-22 18:26 31.64998 -2.25626 2656 ft 14 kts 90°
2026-04-22 18:26 31.64998 -2.25546 2657 ft 6 kts 89°
2026-04-22 18:26 31.65005 -2.25485 2657 ft 8 kts 72°
2026-04-22 18:27 31.65022 -2.25433 2658 ft 5 kts 92°
2026-04-22 18:27 31.65033 -2.25397 2658 ft 5 kts 10°
2026-04-22 18:27 31.65059 -2.25424 2658 ft 4 kts 316°
2026-04-22 18:27 31.65063 -2.25429 2658 ft 0 kts 316°